Weather reports worldwide

Advertisment
Vitoria, Spain (8080): temperature & dewpoint: 16.02.2019 22:00:00 - 22.02.2019 22:00:00 (CET)Vitoria, Spain (8080): wind speed: 16.02.2019 22:00:00 - 22.02.2019 22:00:00 (CET)Vitoria, Spain (8080): wind direction: 16.02.2019 22:00:00 - 22.02.2019 22:00:00 (CET)Vitoria, Spain (8080): reduced air pressure: 16.02.2019 22:00:00 - 22.02.2019 22:00:00 (CET)Vitoria, Spain (8080): visibility: 16.02.2019 22:00:00 - 22.02.2019 22:00:00 (CET)
Date & Time tt [°C] td [°C] ff [km/h] ff [kn] dd ppp [hPa] vv [km]
22.02.2019 22:00:00 4,4 1,4 0 0 N 1031,7 15
22.02.2019 21:00:00 5,1 1,8 9 5 NNE 1031,5 -
22.02.2019 20:00:00 7,7 2,9 4 2 E 1030,6 -
22.02.2019 19:00:00 13,6 5,7 4 2 W 1029,0 20
22.02.2019 18:00:00 19,2 2,9 0 0 N 1027,5 -
22.02.2019 17:00:00 20,1 1,3 5 3 SSW 1027,5 -
22.02.2019 16:00:00 19,8 2,2 11 6 SSW 1027,6 25
22.02.2019 15:00:00 19,0 1,5 16 9 SW 1028,0 -
22.02.2019 14:00:00 17,8 4,1 4 2 ESE 1029,0 25
22.02.2019 13:00:00 15,5 2,9 8 4 SW 1030,1 15
22.02.2019 12:00:00 12,0 5,7 2 1 S 1031,7 -
22.02.2019 11:00:00 7,9 4,9 0 0 N 1033,2 -
22.02.2019 10:00:00 4,2 3,0 0 0 N 1034,4 4,5
22.02.2019 09:00:00 -0,3 -0,4 0 0 N 1035,7 -
22.02.2019 08:00:00 -2,1 -2,2 8 4 NE 1035,4 4,0
22.02.2019 07:00:00 -1,8 -2,1 0 0 N 1034,9 6
22.02.2019 06:00:00 -1,1 -1,1 2 1 W 1034,8 -
22.02.2019 05:00:00 -0,5 -0,6 0 0 N 1034,4 -
22.02.2019 04:00:00 0,1 0,1 8 4 NE 1034,4 8
22.02.2019 03:00:00 -0,1 -0,5 4 2 N 1034,5 -
22.02.2019 02:00:00 1,0 0,6 2 1 ENE 1034,5 -
22.02.2019 01:00:00 1,5 1,4 0 0 N 1034,1 10
22.02.2019 00:00:00 2,8 2,3 0 0 N 1033,2 -
21.02.2019 23:00:00 2,8 1,7 4 2 E 1032,8 -
21.02.2019 22:00:00 4,6 3,1 0 0 N 1032,1 15
21.02.2019 21:00:00 6,1 4,3 8 4 NNE 1031,1 -
21.02.2019 20:00:00 10,1 5,9 0 0 N 1029,6 -
21.02.2019 19:00:00 12,6 6,6 5 3 SSW 1028,1 20
21.02.2019 18:00:00 15,9 6,9 9 5 SW 1026,7 -
21.02.2019 17:00:00 17,3 5,7 9 5 WSW 1026,2 -
21.02.2019 16:00:00 16,9 4,1 13 7 SW 1026,3 30
21.02.2019 15:00:00 16,0 7,5 16 9 SW 1026,3 -
21.02.2019 14:00:00 14,7 6,8 18 10 SW 1026,9 20
21.02.2019 13:00:00 13,7 6,6 8 4 SSW 1027,7 12
21.02.2019 12:00:00 11,5 5,6 5 3 SSW 1028,5 -
21.02.2019 11:00:00 8,8 5,4 0 0 N 1029,3 -
21.02.2019 10:00:00 5,1 4,1 4 2 ENE 1029,9 5
21.02.2019 09:00:00 -0,6 -0,6 0 0 N 1031,0 -
21.02.2019 08:00:00 -1,8 -1,9 4 2 ENE 1030,5 4,8
21.02.2019 07:00:00 -1,7 -1,9 8 4 NE 1030,1 4,8
21.02.2019 06:00:00 -1,4 -1,5 8 4 NE 1029,8 -
21.02.2019 05:00:00 -0,9 -1,3 0 0 N 1029,4 -
21.02.2019 04:00:00 -0,1 -0,2 4 2 E 1029,4 9
21.02.2019 03:00:00 -0,2 -0,3 4 2 NE 1029,2 -
21.02.2019 02:00:00 -0,5 -0,8 4 2 NNE 1029,1 -
21.02.2019 01:00:00 0,6 0,5 0 0 N 1028,5 12
21.02.2019 00:00:00 1,3 0,6 2 1 ENE 1028,0 -
20.02.2019 23:00:00 2,0 1,4 4 2 N 1027,7 -
20.02.2019 22:00:00 3,8 2,6 0 0 N 1027,0 15
20.02.2019 21:00:00 5,9 3,6 0 0 N 1026,0 -
20.02.2019 20:00:00 7,5 5,2 13 7 SW 1025,1 -
20.02.2019 19:00:00 9,3 5,5 8 4 WNW 1024,1 15
20.02.2019 18:00:00 12,3 6,3 15 8 SW 1023,1 -
20.02.2019 17:00:00 13,9 6,4 15 8 WSW 1022,6 -
20.02.2019 16:00:00 14,2 6,7 15 8 SSW 1022,4 20
20.02.2019 15:00:00 13,5 7,1 22 12 SW 1022,7 -
20.02.2019 14:00:00 12,8 7,1 21 11 SW 1023,2 12
20.02.2019 13:00:00 11,2 6,3 16 9 SW 1023,9 12
20.02.2019 12:00:00 9,9 6,0 13 7 SW 1024,5 -
20.02.2019 11:00:00 8,2 5,4 13 7 SW 1024,8 -
20.02.2019 10:00:00 6,2 5,0 9 5 WSW 1025,0 10
20.02.2019 09:00:00 -0,2 -0,2 0 0 N 1025,9 -
20.02.2019 08:00:00 -1,3 -1,3 0 0 N 1025,3 9
20.02.2019 07:00:00 -1,3 -1,4 2 1 NE 1024,7 9
20.02.2019 06:00:00 -1,2 -1,2 4 2 NE 1024,5 -
20.02.2019 05:00:00 -0,3 -0,3 0 0 N 1024,1 -
20.02.2019 04:00:00 -0,2 -0,2 0 0 N 1024,3 9
20.02.2019 03:00:00 0,8 0,8 0 0 N 1024,2 -
20.02.2019 02:00:00 1,1 1,1 0 0 N 1024,0 -
20.02.2019 01:00:00 1,7 1,6 0 0 N 1023,7 10
20.02.2019 00:00:00 2,3 1,9 0 0 N 1023,6 -
19.02.2019 23:00:00 2,9 2,5 0 0 N 1023,3 -
19.02.2019 22:00:00 3,7 2,8 5 3 ENE 1022,6 15
19.02.2019 21:00:00 4,7 3,4 4 2 NNE 1022,0 -
19.02.2019 20:00:00 8,0 5,5 4 2 SW 1021,0 -
19.02.2019 19:00:00 10,3 5,6 5 3 SW 1019,7 15
19.02.2019 18:00:00 12,6 5,7 0 0 N 1018,9 -
19.02.2019 17:00:00 13,6 5,9 0 0 N 1018,8 -
19.02.2019 16:00:00 13,2 5,8 4 2 S 1019,3 15
19.02.2019 15:00:00 11,8 5,6 4 2 N 1020,1 -
19.02.2019 14:00:00 10,9 5,4 8 4 NW 1021,1 15
19.02.2019 13:00:00 10,1 4,6 2 1 NW 1022,0 20
19.02.2019 12:00:00 8,8 5,4 0 0 N 1022,7 -
19.02.2019 11:00:00 8,0 6,0 0 0 N 1023,0 -
19.02.2019 10:00:00 7,0 5,8 0 0 N 1023,3 12
19.02.2019 09:00:00 6,4 5,8 4 2 W 1023,1 -
19.02.2019 08:00:00 6,1 5,7 8 4 NE 1022,1 10
19.02.2019 07:00:00 6,2 5,6 5 3 N 1021,9 10
19.02.2019 06:00:00 6,1 6,0 9 5 NE 1022,0 -
19.02.2019 05:00:00 6,2 6,0 11 6 NNE 1022,1 -
19.02.2019 04:00:00 6,4 6,0 9 5 NE 1022,3 10
19.02.2019 03:00:00 5,9 5,3 0 0 N 1022,6 -
19.02.2019 02:00:00 4,9 4,4 0 0 N 1022,9 -
19.02.2019 01:00:00 4,4 3,8 0 0 N 1022,9 8
19.02.2019 00:00:00 3,9 3,3 0 0 N 1022,7 -
18.02.2019 23:00:00 4,5 3,6 4 2 WNW 1022,5 -
18.02.2019 22:00:00 5,6 4,4 9 5 NNE 1022,1 9
18.02.2019 21:00:00 5,8 3,5 0 0 N 1021,2 -
18.02.2019 20:00:00 7,0 3,6 4 2 N 1020,3 -
18.02.2019 19:00:00 9,3 4,1 5 3 SW 1019,0 20
18.02.2019 18:00:00 11,7 4,9 11 6 WSW 1017,9 -
18.02.2019 17:00:00 13,5 3,7 11 6 SW 1017,4 -
18.02.2019 16:00:00 14,6 2,7 16 9 S 1017,0 30
18.02.2019 15:00:00 14,8 2,5 16 9 S 1017,3 -
18.02.2019 14:00:00 14,4 2,7 2 1 WSW 1017,9 35
18.02.2019 13:00:00 12,7 2,8 4 2 N 1019,0 30
18.02.2019 12:00:00 11,2 2,3 4 2 WNW 1020,0 -
18.02.2019 11:00:00 9,7 1,5 0 0 N 1020,5 -
18.02.2019 10:00:00 5,9 3,5 0 0 N 1021,5 25
18.02.2019 09:00:00 0,3 -0,4 0 0 N 1022,7 -
18.02.2019 08:00:00 -1,0 -2,1 0 0 N 1022,5 25
18.02.2019 07:00:00 -0,7 -1,9 0 0 N 1022,4 20
18.02.2019 06:00:00 0,1 -1,3 0 0 N 1022,1 -
18.02.2019 05:00:00 1,5 -1,4 0 0 N 1021,5 -
18.02.2019 04:00:00 3,5 -1,0 5 3 NNE 1021,2 25
18.02.2019 03:00:00 1,2 -1,5 8 4 N 1021,9 -
18.02.2019 02:00:00 3,4 -1,9 2 1 NNE 1020,9 -
18.02.2019 01:00:00 4,1 -1,9 0 0 N 1020,3 30
18.02.2019 00:00:00 4,1 -1,8 8 4 E 1020,6 -
17.02.2019 23:00:00 6,7 -3,0 4 2 N 1020,3 -
17.02.2019 22:00:00 7,2 -2,5 9 5 N 1020,3 30
17.02.2019 21:00:00 7,3 -1,5 2 1 NNW 1020,4 -
17.02.2019 20:00:00 8,8 -3,2 0 0 N 1019,8 -
17.02.2019 19:00:00 10,4 -1,7 4 2 NNE 1019,3 35
17.02.2019 18:00:00 14,9 -2,5 5 3 ESE 1018,2 -
17.02.2019 17:00:00 17,1 -2,5 11 6 E 1017,8 -
17.02.2019 16:00:00 17,9 -4,3 8 4 SE 1017,9 40
17.02.2019 15:00:00 17,4 -4,1 15 8 SE 1018,8 -
17.02.2019 14:00:00 15,4 -4,9 8 4 E 1020,6 30
17.02.2019 13:00:00 13,8 -4,3 8 4 W 1022,2 30
17.02.2019 12:00:00 12,2 -3,0 8 4 WSW 1023,4 -
17.02.2019 11:00:00 10,1 -5,2 5 3 WSW 1024,2 -
17.02.2019 10:00:00 6,7 -2,2 0 0 N 1025,3 30
17.02.2019 09:00:00 0,6 -1,6 0 0 N 1026,7 -
17.02.2019 08:00:00 -1,5 -3,7 5 3 W 1027,0 2,5
17.02.2019 07:00:00 -0,4 -3,1 0 0 N 1026,5 15
17.02.2019 06:00:00 -0,5 -3,5 4 2 WSW 1026,4 -
17.02.2019 05:00:00 -0,2 -2,5 2 1 ESE 1026,3 -
17.02.2019 04:00:00 2,1 -2,4 4 2 WNW 1025,8 15
17.02.2019 03:00:00 1,3 -1,8 4 2 NNE 1026,1 -
17.02.2019 02:00:00 2,1 -1,5 5 3 NNE 1025,8 -
17.02.2019 01:00:00 3,9 -0,8 9 5 WNW 1025,6 15
17.02.2019 00:00:00 5,9 -1,2 2 1 N 1024,7 -
16.02.2019 23:00:00 6,9 -1,3 5 3 N 1024,8 -
16.02.2019 22:00:00 8,4 -1,2 8 4 NNW 1024,5 15

tt = temperature
td = dewpoint
ff = wind speed
dd = wind direction
ppp = reduced air pressure
vv = visibility

Next stations